Cumberland, WV

8:10 AM EST on December 16, 2017 (GMT -0500)
Greater Cumberland Regional

Weather History for KCBE - March, 2013

Change the Weather History Date:

Sunday, March 31, 2013

  Actual Average (KMRB) Record (KMRB)
Temperature  
Mean Temperature 38 °F -  
Max Temperature 42 °F 57 °F 86 °F (1998)
Min Temperature 33 °F 38 °F 19 °F (1947)
Degree Days  
Heating Degree Days 28    
Moisture  
Dew Point 36 °F    
Average Humidity 91    
Maximum Humidity 100    
Minimum Humidity 61    
Precipitation  
Precipitation 0.00 in - - ()
Sea Level Pressure  
Sea Level Pressure 29.92 in    
Wind  
Wind Speed 1 mph (NNE)    
Max Wind Speed 7 mph    
Max Gust Speed -    
Visibility 6 miles    
Events      
Averages and records for this station are not official NWS values.
T = Trace of Precipitation, MM = Missing Value Source: NWS Daily Summary

Daily Weather History Graph

Daily Weather History Graph

Search for Another Location

Airport or City:

Trip Planner

Search our weather history database for the weather conditions in past years. The results will help you decide how hot, cold, wet, or windy it might be!

Date:

Astronomy

Mar. 31, 2013 Rise Set
Actual Time 7:00 AM EDT 7:38 PM EDT
Civil Twilight 6:33 AM EDT 8:05 PM EDT
Nautical Twilight 6:01 AM EDT 8:37 PM EDT
Astronomical Twilight 5:28 AM EDT 9:10 PM EDT
Moon No Moon Rise 9:47 AM EDT (3/31)
Length of Visible Light 13h 32m
Length of Day
12h 37m
Waning Gibbous, 78% of the Moon is Illuminated
Mar 31
Waning Gibbous
Apr 3
Last Quarter
Apr 10
New
Apr 18
First Quarter
Apr 25
Full

Hourly Weather History & Observations

Time (EDT) Temp. Windchill Dew Point Humidity Pressure Visibility Wind Dir Wind Speed Gust Speed Precip Events Conditions
12:15 AM 39.2 °F - 26.6 °F 61% 30.12 in 10.0 mi Calm Calm - N/A   Clear
12:35 AM 37.4 °F 32.1 °F 26.6 °F 65% 30.11 in 10.0 mi North 6.9 mph - N/A   Clear
12:55 AM 37.4 °F 33.8 °F 26.6 °F 65% 30.10 in 10.0 mi North 4.6 mph - N/A   Clear
1:15 AM 37.4 °F 33.8 °F 26.6 °F 65% 30.10 in 10.0 mi North 4.6 mph - N/A   Clear
1:35 AM 37.4 °F 34.9 °F 26.6 °F 65% 30.10 in 10.0 mi North 3.5 mph - N/A   Clear
1:55 AM 37.4 °F - 26.6 °F 65% 30.10 in 10.0 mi Calm Calm - N/A   Clear
2:15 AM 33.8 °F - 28.4 °F 81% 30.08 in 10.0 mi Calm Calm - N/A   Clear
2:35 AM 35.6 °F - 28.4 °F 75% 30.08 in 10.0 mi Calm Calm - N/A   Clear
2:55 AM 35.6 °F - 28.4 °F 75% 30.06 in 10.0 mi Calm Calm - N/A   Clear
3:15 AM 35.6 °F - 28.4 °F 75% 30.05 in 10.0 mi Calm Calm - N/A   Clear
3:35 AM 35.6 °F - 28.4 °F 75% 30.04 in 10.0 mi Calm Calm - N/A   Clear
3:55 AM 35.6 °F - 28.4 °F 75% 30.04 in 10.0 mi Calm Calm - N/A   Clear
4:15 AM 33.8 °F - 30.2 °F 87% 30.02 in 10.0 mi Calm Calm - N/A   Clear
4:35 AM 33.8 °F - 28.4 °F 81% 30.02 in 10.0 mi Calm Calm - N/A   Clear
4:55 AM 33.8 °F - 28.4 °F 81% 30.02 in 10.0 mi Calm Calm - N/A   Clear
5:15 AM 33.8 °F - 28.4 °F 81% 30.01 in 10.0 mi Calm Calm - N/A   Scattered Clouds
5:35 AM 35.6 °F - 28.4 °F 75% 30.00 in 10.0 mi Calm Calm - N/A   Scattered Clouds
5:55 AM 35.6 °F - 30.2 °F 81% 30.00 in 10.0 mi Calm Calm - N/A   Clear
6:15 AM 35.6 °F - 28.4 °F 75% 30.00 in 10.0 mi Calm Calm - N/A   Scattered Clouds
6:35 AM 35.6 °F - 28.4 °F 75% 29.99 in 10.0 mi Calm Calm - N/A   Mostly Cloudy
6:55 AM 33.8 °F - 30.2 °F 87% 29.99 in 10.0 mi Calm Calm - N/A   Mostly Cloudy
7:15 AM 33.8 °F - 32.0 °F 93% 29.99 in 10.0 mi Calm Calm - N/A   Mostly Cloudy
7:35 AM 33.8 °F - 32.0 °F 93% 30.00 in 10.0 mi Calm Calm - N/A   Scattered Clouds
7:55 AM 35.6 °F - 32.0 °F 87% 30.00 in 10.0 mi Calm Calm - N/A   Clear
8:16 AM 35.6 °F - 32.0 °F 87% 30.00 in 10.0 mi Calm Calm - N/A   Scattered Clouds
8:36 AM 35.6 °F 31.7 °F 32.0 °F 87% 30.00 in 7.0 mi SSE 4.6 mph - N/A   Overcast
8:56 AM 35.6 °F - 32.0 °F 87% 29.99 in 5.0 mi Calm Calm - N/A   Overcast
9:16 AM 35.6 °F - 32.0 °F 87% 29.98 in 10.0 mi Calm Calm - N/A   Overcast
9:36 AM 35.6 °F - 33.8 °F 93% 29.97 in 7.0 mi Calm Calm - N/A   Overcast
9:56 AM 35.6 °F 32.8 °F 33.8 °F 93% 29.96 in 7.0 mi NE 3.5 mph - N/A   Overcast
10:16 AM 35.6 °F 32.8 °F 33.8 °F 93% 29.95 in 7.0 mi NE 3.5 mph - N/A   Overcast
10:36 AM 35.6 °F - 33.8 °F 93% 29.94 in 5.0 mi Calm Calm - N/A   Overcast
10:56 AM 35.6 °F 32.8 °F 35.6 °F 100% 29.93 in 4.0 mi North 3.5 mph - N/A   Overcast
11:16 AM 35.6 °F - 35.6 °F 100% 29.92 in 4.0 mi Calm Calm - N/A   Overcast
11:36 AM 35.6 °F - 35.6 °F 100% 29.92 in 3.0 mi Calm Calm - N/A   Overcast
11:56 AM 37.4 °F 33.8 °F 37.4 °F 100% 29.92 in 3.0 mi SSW 4.6 mph - N/A   Overcast
12:16 PM 37.4 °F - 37.4 °F 100% 29.90 in 4.0 mi Calm Calm - N/A   Overcast
12:36 PM 37.4 °F - 37.4 °F 100% 29.88 in 2.5 mi Calm Calm - N/A   Overcast
12:56 PM 37.4 °F - 37.4 °F 100% 29.87 in 2.0 mi Calm Calm - N/A   Overcast
1:16 PM 37.4 °F - 37.4 °F 100% 29.87 in 4.0 mi Calm Calm - N/A   Overcast
1:36 PM 37.4 °F - 37.4 °F 100% 29.85 in 3.0 mi Calm Calm - N/A   Overcast
1:56 PM 37.4 °F - 37.4 °F 100% 29.85 in 1.2 mi Calm Calm - N/A   Overcast
2:16 PM 37.4 °F - 37.4 °F 100% 29.84 in 1.8 mi Calm Calm - N/A   Overcast
2:36 PM 39.2 °F - 39.2 °F 100% 29.83 in 1.2 mi Calm Calm - N/A   Overcast
2:56 PM 39.2 °F - 39.2 °F 100% 29.83 in 1.2 mi Calm Calm - N/A   Overcast
3:16 PM 41.0 °F - 41.0 °F 100% 29.82 in 1.0 mi Calm Calm - N/A   Overcast
3:36 PM 41.0 °F - 41.0 °F 100% 29.81 in 1.8 mi Calm Calm - N/A   Overcast
3:56 PM 41.0 °F - 41.0 °F 100% 29.81 in 2.0 mi Calm Calm - N/A   Overcast
4:16 PM 41.0 °F - 41.0 °F 100% 29.79 in 2.5 mi Calm Calm - N/A   Overcast
4:36 PM 41.0 °F - 41.0 °F 100% 29.81 in 2.0 mi Calm Calm - N/A   Overcast
4:57 PM 41.0 °F - 41.0 °F 100% 29.80 in 3.0 mi Calm Calm - N/A   Overcast
5:17 PM 41.0 °F - 41.0 °F 100% 29.80 in 3.0 mi Calm Calm - N/A   Overcast
5:37 PM 42.8 °F - 42.8 °F 100% 29.80 in 4.0 mi Calm Calm - N/A   Overcast
5:57 PM 42.8 °F - 42.8 °F 100% 29.80 in 3.0 mi Calm Calm - N/A   Overcast
6:17 PM 42.8 °F - 42.8 °F 100% 29.80 in 3.0 mi Calm Calm - N/A   Overcast
6:37 PM 42.8 °F - 42.8 °F 100% 29.80 in 4.0 mi Calm Calm - N/A   Overcast
6:57 PM 42.8 °F - 42.8 °F 100% 29.81 in 3.0 mi Calm Calm - N/A   Overcast
7:17 PM 42.8 °F - 42.8 °F 100% 29.81 in 3.0 mi Calm Calm - N/A   Overcast
7:37 PM 42.8 °F 41.1 °F 42.8 °F 100% 29.80 in 3.0 mi SSE 3.5 mph - N/A   Overcast
7:57 PM 42.8 °F - 42.8 °F 100% 29.80 in 5.0 mi Calm Calm - N/A   Overcast
8:17 PM 42.8 °F - 42.8 °F 100% 29.81 in 4.0 mi Calm Calm - N/A   Overcast
8:37 PM 42.8 °F - 42.8 °F 100% 29.81 in 4.0 mi Calm Calm - N/A   Overcast
8:57 PM 42.8 °F - 42.8 °F 100% 29.82 in 3.0 mi Calm Calm - N/A   Overcast
9:17 PM 42.8 °F - 42.8 °F 100% 29.82 in 3.0 mi Calm Calm - N/A   Overcast
9:37 PM 42.8 °F - 42.8 °F 100% 29.82 in 3.0 mi Calm Calm - N/A   Overcast
9:57 PM 42.8 °F - 42.8 °F 100% 29.82 in 2.5 mi Calm Calm - N/A   Overcast
10:17 PM 41.0 °F - 41.0 °F 100% 29.82 in 1.2 mi Calm Calm - N/A   Overcast
10:57 PM 41.0 °F - 41.0 °F 100% 29.81 in 1.8 mi Calm Calm - N/A   Overcast
11:17 PM 41.0 °F - 41.0 °F 100% 29.81 in 2.0 mi Calm Calm - N/A   Overcast
11:37 PM 41.0 °F - 41.0 °F 100% 29.80 in 2.0 mi Calm Calm - N/A   Overcast
11:57 PM 41.0 °F - 41.0 °F 100% 29.80 in 0.8 mi Calm Calm - N/A   Overcast